Location: Brodie Road Observatory
(45.4241°N, 74.5431°W)
Time: 23:31:37
(UTC-05:00)

Daily predictions for brighter satellites

Satellite Brightness Start Highest point End
(mag) Time Altitude Azimuth Time Altitude Azimuth Time Altitude Azimuth
Geosat 4.5 17:58:34 10° NNE 18:03:35 67° WNW 18:08:33 10° SW
SKYMED 2 3.5 18:01:55 10° NNE 18:06:17 72° ESE 18:10:36 10° S
COSMOS 2428 3.7 18:02:12 10° N 18:06:57 26° NE 18:11:41 10° ESE
ATLAS CENTAUR R/B 4.0 18:05:21 10° WNW 18:07:47 14° NNW 18:10:09 10° N
METEOR-M 4.2 18:05:14 10° SSE 18:10:27 58° ENE 18:15:42 10° N
Cosmos 2237 Rocket 4.1 18:08:00 10° N 18:10:28 13° NE 18:12:56 10° ENE
Cosmos 1536 4.3 18:13:46 10° SE 18:16:23 17° E 18:18:59 10° NE
H-2A R/B 4.1 18:14:29 10° ESE 18:17:08 19° ENE 18:19:48 10° NNE
Okean 1 3.3 18:14:32 10° N 18:18:37 75° E 18:22:40 10° SSE
Cosmos 1812 3.2 18:15:34 10° NNW 18:19:25 68° W 18:23:14 10° S
Meteor 1-25 Rocket 4.3 18:14:24 10° S 18:20:02 89° W 18:25:47 10° N
Cosmos 1536 Rocket 3.6 18:16:51 10° N 18:21:19 66° E 18:25:45 10° SSE
Cosmos 1633 3.2 18:18:43 10° SSE 18:22:03 34° E 18:25:25 10° NNE
Cosmos 1818 3.6 18:20:55 10° SSW 18:26:20 73° ESE 18:31:48 10° NE
Cosmos 2360 Rocket 2.2 18:21:10 10° NNW 18:26:49 67° ENE 18:32:26 10° SE
ASTRO F (AKARI) 4.4 18:23:31 10° NNE 18:27:09 78° ESE 18:30:33 10° S
Cosmos 407 Rocket 3.6 18:22:33 10° SSW 18:27:49 90° WNW 18:33:11 10° NNE
Cosmos 2219 Rocket 3.4 18:23:50 10° N 18:28:11 22° NE 18:31:49 13° E
Cosmos 2219 4.3 18:26:10 10° SSE 18:30:37 24° E 18:35:04 10° NE
Cosmos 676 Rocket 3.9 18:27:13 10° S 18:32:21 71° ESE 18:37:35 10° NNE
Cosmos 1570 Rocket 4.3 18:31:53 10° N 18:36:53 43° ENE 18:41:52 10° SE
Meteor 1-11 Rocket 4.0 18:34:23 10° SSE 18:39:59 51° E 18:45:42 10° NNE
SL-16 R/B 4.2 18:42:16 10° NNE 18:43:41 11° NE 18:45:07 10° NE
Cosmos 1140 Rocket 3.5 18:42:26 10° S 18:47:27 59° ESE 18:52:32 10° NNE
Resurs 01 Rocket 1.7 18:46:06 10° SSE 18:50:24 54° ENE 18:54:43 10° N
Cosmos 1602 3.6 18:46:34 10° S 18:50:26 73° E 18:54:20 10° NNE
Cosmos 1300 Rocket 3.5 18:47:35 10° S 18:51:58 71° E 18:56:24 10° NNE
COSMO-SKYMED 1 4.2 18:50:14 10° N 18:54:14 36° WNW 18:58:12 10° SW
Cosmos 614 Rocket 4.0 18:50:25 10° S 18:55:20 52° ESE 19:00:15 10° NNE
Abrixas rocket 4.2 18:55:05 10° S 18:56:51 15° SE 18:56:51 15° SE
Cosmos 2181 Rocket 4.0 18:50:59 10° N 18:57:15 89° W 19:03:36 10° S
Cosmos 1833 4.1 18:51:43 10° SSW 18:57:26 84° ESE 19:03:07 10° NNE
ALOS 2.2 18:53:43 10° SSE 18:58:23 84° ENE 19:03:05 10° NNW
USA 229 DEB 3.9 18:54:47 10° NW 19:01:48 58° NE 19:07:02 19° ESE
USA 229 3.9 18:54:53 10° NNW 19:01:54 57° NE 19:07:06 19° ESE
Cosmos 2333 Rocket 3.0 18:56:51 10° N 19:01:57 31° NE 19:04:11 24° E
Spot 2 Rocket 3.4 18:57:45 10° SSE 19:02:46 71° ENE 19:07:50 10° N
SL-16 R/B 4.4 18:58:29 10° NW 19:03:12 27° WSW 19:07:53 10° SSW
Cosmos 2208 Rocket 4.0 18:58:27 10° NNW 19:03:55 67° ENE 19:09:17 10° SSE
Cosmos 1340 3.8 19:02:08 10° NNW 19:05:47 46° W 19:09:25 10° S
FREGAT/IRIS 4.3 19:03:12 10° SSW 19:06:06 37° W 19:09:02 10° NNW
Helios 1A 3.3 19:04:16 23° SE 19:06:28 42° ENE 19:10:24 10° N
NOSS 8 (E) 4.5 19:04:11 10° SSW 19:07:36 62° SE 19:09:17 29° NE
Resurs 1-3 3.5 19:03:54 10° SSE 19:08:16 70° ENE 19:12:39 10° N
Cosmos 1709 Rocket 4.5 19:08:21 10° SSW 19:14:30 63° W 19:20:38 10° N
Cosmos 2074 Rocket 4.0 19:08:24 10° S 19:14:31 60° E 19:20:42 10° NNE
Cosmos 1850 Rocket 4.0 19:09:21 10° S 19:14:35 65° ESE 19:19:53 10° NNE
Helios 1B rocket 3.3 19:13:09 10° NNE 19:18:13 32° SE 19:20:57 10° SSE
Cosmos 2184 Rocket 4.0 19:11:18 10° S 19:17:29 61° E 19:23:38 10° NNE
USA 215 4.4 19:12:28 12° NE 19:17:42 35° N 19:23:27 10° WNW
Envisat 3.6 19:18:29 33° E 19:19:12 34° ENE 19:23:47 10° N
Okean 2 3.5 19:17:12 10° N 19:21:16 50° ENE 19:22:00 44° ESE
NOSS 8 (H) 4.4 19:18:21 10° SSW 19:21:41 61° ESE 19:21:51 60° ESE
Intercosmos 24 4.4 19:17:50 10° S 19:22:06 65° E 19:28:20 10° NNE
USA 186 3.6 19:24:36 20° N 19:24:36 20° N 19:25:39 10° N
ERS-1 Rocket 4.2 19:25:25 24° NE 19:25:25 24° NE 19:28:38 10° N
Genesis I 3.6 19:22:21 10° NW 19:26:16 62° WSW 19:28:05 29° SSE
Okean 1 Rocket 3.4 19:22:20 10° SSW 19:26:48 67° W 19:31:17 10° N
SAR-Lupe-1 3.9 19:26:19 58° SE 19:26:53 74° ENE 19:30:28 10° N
Meteor 1-5 Rocket 4.2 19:21:46 10° S 19:27:40 66° E 19:33:31 10° NNE
FENGYUN 3A 4.3 19:23:04 10° S 19:28:23 58° W 19:33:46 10° NNW
Cosmos 1892 Rocket 3.7 19:25:13 10° N 19:29:15 47° ENE 19:29:15 47° ENE
SAR-Lupe-4 3.5 19:30:26 38° S 19:31:44 82° WSW 19:35:20 10° NNW
NOSS 3-1 (C) 4.3 19:26:55 10° NNW 19:33:59 48° NE 19:36:56 35° E
Nadezhda 3 Rocket 4.1 19:28:50 10° N 19:34:48 49° ENE 19:36:37 38° ESE
Gbstr 26 Del rocket 2.5 19:33:12 10° SW 19:36:52 79° S 19:36:52 79° S
GEOS 3 Rocket 3.6 19:39:42 20° NE 19:43:25 83° NW 19:48:42 10° SW
Cosmos 2285 Rocket 4.0 19:37:08 10° NNW 19:43:38 89° ENE 19:47:50 23° SSE
Cosmos 1025 Rocket 3.5 19:40:09 10° NNW 19:44:29 62° W 19:48:41 11° S
Cosmos 405 Rocket 3.1 19:41:43 10° N 19:45:01 54° NNE 19:45:01 54° NNE
CZ-2D R/B 3.9 19:43:32 21° S 19:45:50 53° W 19:49:36 10° NNW
Cosmos 2154 Rocket 4.0 19:40:19 10° SSE 19:46:28 54° E 19:52:37 10° NNE
H-2A R/B 4.3 19:47:48 10° SSW 19:51:12 34° W 19:54:38 10° NNW
COSMOS 2428 3.2 19:46:02 10° NNW 19:51:37 59° WSW 19:55:38 19° S
Meteor 2-13 Rocket 4.3 19:46:19 10° S 19:52:21 75° E 19:58:27 10° NNE
Cosmos 1536 4.2 19:48:46 10° SW 19:52:31 38° WNW 19:56:16 10° N
Cosmos 2237 Rocket 2.3 19:50:15 10° NNW 19:55:53 56° ENE 19:55:53 56° ENE
NOSS 0 Rocket 3.8 20:01:12 10° NNW 20:07:24 89° ENE 20:08:24 65° SSE
Cosmos 2219 Rocket 2.3 20:07:06 10° NNW 20:12:41 70° WSW 20:13:35 59° SSW
Cosmos 2219 3.7 20:08:41 10° SW 20:14:20 58° WNW 20:20:01 10° NNE
Cosmos 1763 Rocket 4.2 20:10:57 10° NNW 20:14:26 41° N 20:14:26 41° N
Resurs 01 Rocket 4.4 20:24:29 10° SW 20:27:12 16° W 20:29:57 10° NW
SL-16 R/B 3.3 20:23:53 10° NNW 20:27:19 33° N 20:27:19 33° N
Cosmos 2333 Rocket 3.0 20:40:55 10° NW 20:46:14 47° WSW 20:46:14 47° WSW
USA 215 4.3 20:59:49 35° N 20:59:49 35° N 21:05:28 10° NW
NOSS 3-1 (A) 4.1 20:58:09 10° NW 21:04:58 74° WNW 21:04:58 74° WNW
ATLAS 2AS CENTAUR R/B 3.8 21:03:58 10° NNW 21:10:18 42° NNE 21:10:18 42° NNE
Cosmos 2237 Rocket 4.4 21:35:03 10° NW 21:37:44 21° WNW 21:37:44 21° WNW
